Tracking 19288 objects as of 20-Nov-2018
HD Live streaming from Space Station
objects crossing your sky now

RADUGA 26

Track RADUGA 26 now!
RADUGA 26 is classified as:


NORAD ID: 21016
Int'l Code: 1990-112A
Perigee: 35,764.3 km
Apogee: 35,810.1 km
Inclination: 14.9 °
Period: 1,435.8 minutes
Semi major axis: 42158 km
RCS: 2.5118 m2 (large)
Launch date: December 20, 1990
Source: Commonwealth of Independent States (former USSR) (CIS)
Launch site: TYURATAM MISSILE AND SPACE COMPLEX (TTMTR)
aabbcc
Your satellite tracking list
Your tracking list is empty




NASA's NSSDC Master Catalog

Two Line Element Set (TLE):
1 21016U 90112A   18323.57757759 -.00000279 +00000-0 +00000-0 0  9991
2 21016 014.9349 000.7063 0005433 357.0736 003.3132 01.00295086102527
Source of the keplerian elements: AFSPC